Home > Weather > Monthey > Past weeks

Flag for Switzerland Weather for the Past 2 Weeks in Monthey, Valais, Switzerland

Now
48 °F

Cool.


Feels Like: 47 °F
Forecast: 40 / 71 °F
Wind: 3 mph from Southeast

Location: Aigle

Current Time: May 4, 2016 at 10:07:16 AM

Latest Report: May 4, 2016 at 9:00 AM


Visibility: N/A

Pressure: 30.29 "Hg

Humidity: 71%

Dew Point: 38 °F

Location of MontheyLocation

Historic Weather in Monthey — Graph

°F

Monthey Temperature Yesterday

Maximum temperature yesterday: 59 °F (at 12:00 PM)
Minimum temperature yesterday: 40 °F (at 6:00 AM)
Average temperature yesterday: 50 °F

High & Low Weather Summary for the Past Weeks

 TemperatureHumidityPressure
High64 °F (Apr 22, 4:00 PM)96% (Apr 23, 5:00 AM)30.33 "Hg (Apr 23, 5:00 AM)
Low30 °F (Apr 29, 7:00 AM)30% (Apr 28, 6:00 PM)29.73 "Hg (Apr 26, 4:00 PM)
Average50 °F71%30.04 "Hg
* Reported Apr 19 5:00 AM — May 4 4:00 AM, Monthey, Weather by CustomWeather, © 2016

Note: Actual official high and low records may vary slightly from our data, if they occured in-between our weather recording intervals... More about our weather records

Advertising

Monthey Weather History for the Previous 24 Hours

Scroll right to see more
 ConditionsComfort  
Time TempWeatherWind HumidityBarometerVisibility
4:00 AM
Wed, May 4
40 °FChilly.2 mph94%30.30 "HgN/A
3:00 AM40 °FQuite cool.2 mph93%30.31 "HgN/A
2:00 AM42 °FQuite cool.2 mph91%30.32 "HgN/A
1:00 AM44 °FQuite cool.1 mph92%30.33 "HgN/A
10:00 PM
Tue, May 3
44 °FQuite cool.1 mph96%30.32 "HgN/A
9:00 PM48 °FCool.2 mph88%30.29 "HgN/A
8:00 PM50 °FOvercast.3 mph83%30.27 "Hg16 mi
7:00 PM50 °FCool.5 mph86%30.26 "HgN/A
6:00 PM50 °FCool.5 mph92%30.25 "HgN/A
5:00 PM51 °FRain. Overcast.8 mph82%30.23 "Hg5 mi
4:00 PM51 °FCool.21 mph81%30.21 "HgN/A
3:00 PM55 °FCool.20 mph69%30.16 "HgN/A
2:00 PM56 °FOvercast.15 mph60%30.15 "Hg7 mi
12:00 PM59 °FRefreshingly cool.7 mph56%30.15 "HgN/A
11:00 AM57 °FPartly sunny.6 mph69%30.16 "Hg7 mi
10:00 AM53 °FCool.3 mph79%30.19 "HgN/A
Weather by CustomWeather, © 2016

See weather overviewHow to use our weather pages